"America/Chicago Time","Lifetime Energy (kWh)","Power (W)","AC Volts RMS (V) ","AC Amps RMS (mA)","Grid Frequency (Hz)","Inverter Temperature (C)"
"07/07/12 10:46:20","132.6127","145.6","217.53","676","60.03","35"
"07/07/12 10:51:19","132.624","147.9","218.09","683","60.03","35"
"07/07/12 10:56:20","132.6357","149.6","216.72","691","60.03","35"
"07/07/12 11:01:21","132.6474","150.7","217.42","696","60.03","35"
"07/07/12 11:06:19","132.6592","152.6","216.58","710","60.0","35"
"07/07/12 11:11:20","132.6711","153.3","216.64","707","60.0","36"
"07/07/12 11:16:20","132.6831","154.1","217.96","709","60.03","36"
"07/07/12 11:21:20","132.6951","153.2","217.31","700","60.0","36"
"07/07/12 11:26:19","132.7071","155.9","217.51","715","60.0","36"
"07/07/12 11:31:20","132.7194","157.8","217.84","718","60.0","36"
"07/07/12 11:36:20","132.7317","157.5","217.55","726","60.03","37"
"07/07/12 11:41:19","132.7439","158.6","217.01","730","60.0","37"
"07/07/12 11:46:19","132.7563","159.1","217.0","732","60.0","37"
"07/07/12 11:51:19","132.7687","161.2","217.69","734","60.03","37"
"07/07/12 11:56:20","132.7813","161.3","216.75","740","60.03","37"
"07/07/12 12:01:21","132.7939","161.4","216.6","746","60.03","37"
"07/07/12 12:06:19","132.8065","163.5","217.59","746","60.0","37"
"07/07/12 12:11:21","132.8192","162.0","216.63","751","60.03","37"
"07/07/12 12:16:19","132.8319","162.9","217.04","750","60.0","37"
"07/07/12 12:21:19","132.8444","162.0","217.81","743","60.0","37"
"07/07/12 12:26:20","132.8572","161.6","217.71","736","60.0","38"
"07/07/12 12:31:20","132.8698","164.4","217.71","754","60.0","38"
"07/07/12 12:36:19","132.8827","164.9","217.82","756","60.0","38"
"07/07/12 12:41:20","132.8955","164.6","217.45","755","60.0","38"
"07/07/12 12:46:20","132.9084","164.5","217.5","755","60.03","38"
"07/07/12 12:51:21","132.9212","163.3","217.12","750","60.0","38"
"07/07/12 12:56:19","132.9338","161.6","217.14","743","60.03","38"
"07/07/12 13:01:21","132.9464","160.8","216.74","743","60.03","38"
"07/07/12 13:06:20","132.9589","160.8","217.51","735","60.03","38"
"07/07/12 13:11:21","132.9715","162.0","217.03","745","60.03","39"
"07/07/12 13:16:19","132.984","160.2","217.28","733","60.03","39"
"07/07/12 13:21:19","132.9964","160.0","217.21","737","60.03","39"
"07/07/12 13:26:21","133.0089","158.8","217.28","732","60.03","39"
"07/07/12 13:31:21","133.0213","158.2","217.64","726","60.03","39"
"07/07/12 13:36:19","133.0335","158.0","216.46","727","60.0","39"
"07/07/12 13:41:20","133.0458","158.7","217.06","734","60.03","39"
"07/07/12 13:46:21","133.0581","156.2","216.37","725","60.0","40"
"07/07/12 13:51:19","133.0702","153.9","216.57","712","60.03","40"
"07/07/12 13:56:20","133.0823","154.6","217.41","713","60.0","40"
"07/07/12 14:01:20","133.0943","152.4","217.47","705","60.03","40"
"07/07/12 14:06:21","133.1062","152.7","216.79","703","60.03","40"
"07/07/12 14:11:19","133.1179","151.1","216.75","700","60.03","40"
"07/07/12 14:16:21","133.1296","149.7","216.66","693","60.03","40"
"07/07/12 14:21:19","133.1412","148.9","216.58","689","60.03","40"
"07/07/12 14:26:20","133.1528","147.8","216.54","685","60.0","40"
"07/07/12 14:31:21","133.1642","145.2","217.6","675","60.03","40"
"07/07/12 14:36:19","133.1755","143.9","217.08","667","60.0","40"
"07/07/12 14:41:19","133.1865","142.0","217.45","656","60.0","40"
"07/07/12 14:46:20","133.1975","139.6","217.25","641","60.03","40"
"07/07/12 14:51:20","133.2083","137.5","215.91","647","60.0","40"
"07/07/12 14:56:21","133.219","136.1","217.46","629","60.03","40"
"07/07/12 15:01:20","133.2295","134.7","216.85","624","60.03","40"
"07/07/12 15:06:19","133.2398","131.5","216.54","610","60.03","41"
"07/07/12 15:11:20","133.2498","128.6","215.88","605","60.03","41"
"07/07/12 15:16:20","133.2598","125.5","215.85","594","60.03","42"
"07/07/12 15:21:20","133.2694","123.4","215.73","581","60.03","42"
"07/07/12 15:26:21","133.2791","121.8","216.26","578","60.0","42"
"07/07/12 15:31:20","133.2885","120.1","214.78","567","60.03","43"
"07/07/12 15:36:20","133.2978","117.5","215.06","559","60.03","43"
"07/07/12 15:41:21","133.3068","114.7","215.53","546","60.03","43"
"07/07/12 15:46:20","133.3157","111.6","214.92","536","60.0","43"
"07/07/12 15:51:20","133.3243","110.5","215.85","524","60.0","43"
"07/07/12 15:56:20","133.3328","107.7","216.37","513","60.03","43"
"07/07/12 16:01:21","133.341","104.0","215.92","500","60.0","43"
"07/07/12 16:06:19","133.349","101.7","215.43","486","60.03","43"
"07/07/12 16:11:20","133.3568","99.0","215.94","471","60.03","43"
"07/07/12 16:16:21","133.3644","96.3","215.16","470","60.03","43"
"07/07/12 16:21:19","133.3718","93.8","215.27","456","60.0","43"
"07/07/12 16:26:21","133.3791","91.6","215.32","442","60.0","43"
"07/07/12 16:31:19","133.3861","88.9","213.99","436","60.07","43"
"07/07/12 16:36:20","133.3928","85.8","214.93","418","60.03","43"
"07/07/12 16:41:20","133.3994","82.4","214.8","407","60.03","43"
"07/07/12 16:46:20","133.4057","80.0","214.28","399","60.03","42"
"07/07/12 16:51:19","133.4117","77.2","214.11","385","60.03","42"
"07/07/12 16:56:20","133.4176","74.4","214.17","373","60.03","41"
"07/07/12 17:01:20","133.4232","70.7","214.36","355","60.0","41"
"07/07/12 17:06:20","133.4286","67.2","215.38","341","60.0","41"
"07/07/12 17:11:21","133.4336","63.5","214.54","326","60.03","40"
"07/07/12 17:16:19","133.4383","40.9","213.36","368","59.96","40"
"07/07/12 17:21:20","133.4423","58.3","213.43","161","60.03","40"
"07/07/12 17:26:20","133.4464","64.7","214.13","236","60.03","40"
"07/07/12 17:31:21","133.4504","57.0","213.71","80","60.0","40"
"07/07/12 17:36:19","133.4542","39.9","213.38","118","60.03","40"
"07/07/12 17:41:19","133.4576","49.4","213.57","111","60.03","39"
"07/07/12 17:46:19","133.4608","45.4","213.36","307","60.03","39"
"07/07/12 17:51:20","133.4638","41.7","213.45","243","60.07","39"
"07/07/12 17:56:20","133.4665","37.2","213.19","102","60.03","39"
"07/07/12 18:01:19","133.4689","33.1","213.79","263","60.0","38"
"07/07/12 18:06:19","133.4711","29.3","213.39","180","60.03","38"
"07/07/12 18:11:20","133.473","31.8","214.1","137","60.03","38"
"07/07/12 18:16:19","133.4747","20.1","213.82","49","60.0","38"
"07/07/12 18:21:19","133.4762","17.0","214.02","68","60.07","37"
"07/07/12 18:26:21","133.4775","21.1","214.18","256","60.03","37"
"07/07/12 18:31:20","133.4785","16.3","212.88","27","60.03","37"
"07/07/12 18:36:19","133.4794","0.0","213.75","0","60.0","36"
"07/07/12 18:41:20","133.4801","14.4","212.97","200","60.03","36"
"07/07/12 18:46:20","133.4807","7.5","213.36","114","60.07","35"
"07/07/12 18:51:19","133.4811","13.9","213.19","10","60.07","35"
"07/07/12 18:56:21","133.4816","10.7","212.59","74","60.07","34"
"07/07/12 19:01:20","133.4819","0.0","213.16","0","60.0","34"
"07/07/12 19:06:21","133.4822","13.8","213.87","1","60.03","34"
"07/07/12 19:11:21","133.4824","13.9","214.11","0","60.03","33"
"07/07/12 19:16:19","133.4827","0.0","213.34","0","60.03","32"
"07/07/12 19:26:19","133.4833","13.5","213.36","95","60.03","31"
"07/08/12 06:26:24","133.484","0.0","212.49","0","60.0","18"
"07/08/12 06:31:20","133.484","0.0","212.91","0","60.03","18"
"07/08/12 06:36:20","133.484","0.0","213.28","0","60.03","19"
"07/08/12 06:41:20","133.484","0.0","213.81","0","60.03","19"
"07/08/12 06:46:20","133.4842","11.4","213.31","9","60.0","19"
"07/08/12 06:51:20","133.4846","0.0","212.5","0","60.03","19"
"07/08/12 06:56:20","133.4852","0.0","212.05","0","60.03","19"
"07/08/12 07:01:20","133.4857","0.0","212.62","94","60.03","19"
"07/08/12 07:06:19","133.4863","0.0","212.94","30","60.0","20"
"07/08/12 07:11:19","133.4878","27.1","213.2","142","60.0","20"
"07/08/12 07:16:20","133.4903","28.8","213.5","257","60.03","20"
"07/08/12 07:21:20","133.4929","31.5","213.89","302","60.03","21"
"07/08/12 07:26:21","133.4959","45.0","213.91","190","60.0","22"
"07/08/12 07:31:19","133.4992","38.2","213.66","208","60.03","22"
"07/08/12 07:36:20","133.5028","40.8","214.37","323","60.0","23"
"07/08/12 07:41:20","133.5065","61.4","214.74","182","60.0","24"
"07/08/12 07:46:20","133.5107","65.0","214.65","383","60.03","24"
"07/08/12 07:51:21","133.5147","43.5","215.51","291","60.03","25"
"07/08/12 07:56:19","133.5188","61.3","215.26","319","60.03","25"
"07/08/12 08:01:20","133.5237","64.7","216.14","328","60.03","26"
"07/08/12 08:06:21","133.5289","68.3","215.58","343","60.0","26"
"07/08/12 08:11:20","133.5343","71.9","216.02","355","60.0","27"
"07/08/12 08:16:20","133.54","74.9","215.19","371","60.03","27"
"07/08/12 08:21:43","133.5464","79.3","215.14","390","60.0","27"
"07/08/12 08:26:20","133.5522","81.9","214.88","404","60.03","28"
"07/08/12 08:31:20","133.5586","85.4","215.32","414","60.0","28"
"07/08/12 08:36:19","133.5654","88.4","215.88","430","60.03","28"
"07/08/12 08:41:20","133.5724","91.6","215.58","442","60.0","28"
"07/08/12 08:46:21","133.5797","94.1","215.67","458","60.03","29"
"07/08/12 08:51:20","133.587","97.0","216.07","467","60.0","29"
"07/08/12 08:56:20","133.5948","99.8","215.44","480","60.03","30"
"07/08/12 09:01:20","133.6025","101.7","214.88","490","60.03","30"
"07/08/12 09:06:21","133.6106","104.4","215.04","504","60.03","31"
"07/08/12 09:11:20","133.6188","106.9","215.31","510","60.0","32"
"07/08/12 09:16:20","133.6272","108.1","215.16","518","60.03","32"
"07/08/12 09:21:20","133.6357","110.9","216.08","527","60.0","33"
"07/08/12 09:26:20","133.6444","112.9","215.95","536","60.03","33"
"07/08/12 09:31:21","133.6532","114.6","215.93","544","60.07","34"
"07/08/12 09:36:19","133.6622","116.7","216.27","551","60.03","35"
"07/08/12 09:41:21","133.6714","119.2","215.46","566","60.03","36"
"07/08/12 09:46:20","133.6807","120.6","215.95","572","60.03","36"
"07/08/12 09:51:21","133.6903","123.1","214.68","584","60.0","37"
"07/08/12 09:56:20","133.6999","124.6","215.69","591","60.03","38"
"07/08/12 10:01:20","133.7098","130.0","215.8","610","60.0","38"
"07/08/12 10:06:20","133.7201","131.6","216.37","618","59.96","38"
"07/08/12 10:11:20","133.7303","132.7","216.16","618","60.03","38"
"07/08/12 10:16:20","133.7409","137.8","217.52","637","60.03","38"
"07/08/12 10:21:21","133.7517","138.2","216.96","645","60.0","38"
"07/08/12 10:26:21","133.7625","137.8","217.3","638","60.0","39"
"07/08/12 10:31:20","133.7732","139.7","217.6","651","60.0","39"
"07/08/12 10:36:20","133.7843","144.0","216.91","668","60.0","39"
"07/08/12 10:41:21","133.7956","147.6","218.08","674","60.0","39"
"07/08/12 10:46:21","133.8071","147.6","216.71","684","60.0","38"
"07/08/12 10:51:21","133.8186","149.3","216.11","695","60.0","38"
"07/08/12 10:56:21","133.8303","150.1","217.2","693","60.03","38"
"07/08/12 11:01:20","133.8419","151.8","217.64","694","60.03","38"
"07/08/12 11:06:20","133.8538","152.4","217.18","707","60.03","38"
"07/08/12 11:11:19","133.8656","153.8","217.09","707","60.03","38"
"07/08/12 11:16:21","133.8777","154.4","217.69","711","60.0","38"
"07/08/12 11:21:19","133.8897","156.1","217.79","721","60.03","38"
"07/08/12 11:26:20","133.9019","156.4","217.8","713","60.03","38"
"07/08/12 11:31:20","133.9141","155.7","218.42","716","60.0","38"
"07/08/12 11:36:20","133.9263","158.0","217.7","724","60.0","38"
"07/08/12 11:41:21","133.9387","158.9","217.85","731","60.03","38"
"07/08/12 11:46:20","133.951","159.9","217.72","734","60.0","38"
"07/08/12 11:51:21","133.9635","158.6","217.27","728","60.03","38"
"07/08/12 11:56:19","133.9758","159.0","217.1","732","60.03","39"
"07/08/12 12:01:20","133.9882","160.0","217.2","733","60.0","39"
"07/08/12 12:06:21","134.0006","160.2","217.08","733","60.03","39"
"07/08/12 12:11:20","134.0131","160.8","217.74","735","60.0","39"
"07/08/12 12:16:21","134.0256","160.0","217.61","731","60.03","39"
"07/08/12 12:21:19","134.0381","161.0","217.28","736","60.0","39"
"07/08/12 12:26:20","134.0507","160.8","216.97","737","60.0","39"
"07/08/12 12:31:21","134.0632","159.8","217.46","729","60.0","39"
"07/08/12 12:36:20","134.0757","160.2","216.8","738","60.0","39"
"07/08/12 12:41:21","134.0881","160.9","217.23","742","60.03","39"
"07/08/12 12:46:19","134.1007","162.4","216.66","747","60.0","39"
"07/08/12 12:51:20","134.1133","161.3","216.84","743","60.0","39"
"07/08/12 12:56:20","134.126","162.6","216.67","747","60.03","38"
"07/08/12 13:01:21","134.1386","161.5","217.19","741","60.03","38"
"07/08/12 13:06:21","134.1512","160.7","218.11","733","60.03","38"
"07/08/12 13:11:21","134.1637","159.6","217.56","732","60.0","39"
"07/08/12 13:16:19","134.176","159.8","217.34","730","60.03","39"
"07/08/12 13:21:21","134.1885","158.5","216.88","730","60.03","39"
"07/08/12 13:26:21","134.2009","158.7","216.72","731","60.0","39"
"07/08/12 13:31:20","134.2131","157.5","216.45","731","60.03","39"
"07/08/12 13:36:21","134.2254","155.4","216.61","716","60.03","39"
"07/08/12 13:41:20","134.2373","153.5","217.08","710","60.0","40"
"07/08/12 13:46:21","134.2493","153.0","217.32","704","60.0","40"
"07/08/12 13:51:21","134.2612","152.9","217.0","700","60.0","41"
"07/08/12 13:56:20","134.2731","151.9","217.27","699","60.03","41"
"07/08/12 14:01:21","134.2849","152.2","217.18","703","60.07","41"
"07/08/12 14:06:21","134.2968","150.7","217.11","692","60.03","40"
"07/08/12 14:11:20","134.3084","150.0","217.16","692","60.03","40"
"07/08/12 14:16:21","134.32","147.7","217.07","682","60.03","41"
"07/08/12 14:21:20","134.3314","146.6","216.84","679","60.0","41"
"07/08/12 14:26:20","134.3429","146.4","216.51","674","60.0","41"
"07/08/12 14:31:21","134.3542","143.2","216.76","665","60.03","41"
"07/08/12 14:36:20","134.3654","144.0","218.06","670","60.0","41"
"07/08/12 14:41:20","134.3766","142.6","217.95","658","60.03","41"
"07/08/12 14:46:21","134.3876","139.8","216.9","654","60.0","41"
"07/08/12 14:51:21","134.3985","138.7","216.34","645","60.0","40"
"07/08/12 14:56:21","134.4092","136.2","216.18","637","60.03","40"
"07/08/12 15:01:20","134.4198","135.5","216.14","635","60.0","40"
"07/08/12 15:06:20","134.4303","134.7","217.27","623","60.03","40"
"07/08/12 15:11:21","134.4407","130.9","216.92","613","60.03","40"
"07/08/12 15:16:21","134.4508","129.1","216.33","606","60.03","39"
"07/08/12 15:21:21","134.4607","126.3","216.4","595","60.03","39"
"07/08/12 15:26:20","134.4704","124.5","216.85","584","60.03","39"
"07/08/12 15:31:20","134.48","121.7","216.74","567","60.03","39"
"07/08/12 15:36:20","134.4894","119.2","216.46","563","60.03","39"
"07/08/12 15:41:19","134.4985","117.0","215.91","555","60.03","39"
"07/08/12 15:46:20","134.5076","114.2","216.43","542","60.03","39"
"07/08/12 15:51:19","134.5164","112.1","217.78","529","60.03","38"
"07/08/12 15:56:21","134.5251","109.5","216.84","518","60.03","38"
"07/08/12 16:01:21","134.5335","107.4","216.75","508","60.0","38"
"07/08/12 16:06:21","134.5418","104.0","217.38","493","60.03","38"
"07/08/12 16:11:21","134.5497","101.5","216.84","483","60.0","38"
"07/08/12 16:16:21","134.5575","99.1","217.01","473","60.03","38"
"07/08/12 16:21:20","134.5651","96.1","216.14","464","60.03","38"
"07/08/12 16:26:21","134.5725","92.6","214.93","452","60.0","38"
"07/08/12 16:31:20","134.5795","89.4","214.77","441","60.03","38"
"07/08/12 16:36:20","134.5864","87.2","214.88","428","60.03","37"
"07/08/12 16:41:20","134.593","83.9","215.3","414","60.03","37"
"07/08/12 16:46:20","134.5994","80.6","215.15","400","60.03","37"
"07/08/12 16:51:21","134.6056","77.5","215.07","383","60.03","37"
"07/08/12 16:56:21","134.6115","74.2","215.21","372","60.03","36"
"07/08/12 17:01:21","134.6171","71.5","215.26","358","60.0","36"
"07/08/12 17:06:20","134.6225","68.5","214.79","344","60.0","36"
"07/08/12 17:11:21","134.6277","64.2","214.7","331","60.03","35"
"07/08/12 17:16:20","134.6326","61.5","214.85","316","60.03","35"
"07/08/12 17:21:21","134.6367","49.8","214.66","167","60.03","34"
"07/08/12 17:26:20","134.6408","57.1","215.39","342","60.03","34"
"07/08/12 17:31:20","134.6449","37.3","214.78","217","60.03","34"
"07/08/12 17:36:19","134.6487","53.9","215.17","111","60.07","34"
"07/08/12 17:41:20","134.6523","43.9","214.0","208","60.03","34"
"07/08/12 17:46:21","134.656","47.0","214.58","105","60.03","34"
"07/08/12 17:51:20","134.659","42.8","214.42","297","60.03","34"
"07/08/12 17:56:21","134.6618","30.3","213.97","277","60.0","33"
"07/08/12 18:01:21","134.6642","33.8","213.73","183","60.03","33"
"07/08/12 18:06:20","134.6665","24.4","215.23","167","60.03","33"
"07/08/12 18:11:20","134.6685","12.8","213.13","17","60.03","33"
"07/08/12 18:16:21","134.6702","21.9","213.83","266","60.03","33"
"07/08/12 18:21:20","134.6717","13.6","213.93","73","60.03","33"
"07/08/12 18:26:21","134.6731","23.2","213.33","149","60.0","33"
"07/08/12 18:31:21","134.6748","32.6","214.06","35","60.03","33"
"07/08/12 18:36:21","134.6765","25.9","214.02","54","60.03","33"
"07/08/12 18:41:21","134.6776","5.1","213.83","131","60.03","32"
"07/08/12 18:46:21","134.6784","11.5","214.32","10","60.03","32"
"07/08/12 18:51:20","134.6789","11.9","213.0","72","60.03","31"
"07/08/12 18:56:20","134.6794","13.7","212.93","11","60.03","30"
"07/08/12 19:01:21","134.6797","0.0","213.41","0","60.0","30"
"07/08/12 19:06:20","134.6801","0.0","213.61","0","60.03","30"
"07/08/12 19:11:20","134.6804","10.6","213.21","92","60.0","29"
"07/08/12 19:16:20","134.6807","14.7","213.23","1","60.03","28"
"07/08/12 19:21:20","134.6811","0.0","212.8","0","60.0","28"
"07/08/12 19:26:21","134.6814","14.4","213.13","247","60.03","27"
"07/08/12 19:31:20","134.6816","0.0","212.94","0","60.03","27"
"07/09/12 05:51:20","134.6823","0.0","214.98","0","60.03","17"
"07/09/12 05:56:21","134.6827","0.0","215.36","0","60.03","17"
"07/09/12 06:01:21","134.6831","6.6","215.27","202","60.07","17"
"07/09/12 06:06:21","134.6836","12.6","214.22","4","60.03","18"
"07/09/12 06:11:20","134.684","0.0","214.03","0","60.03","18"
"07/09/12 06:16:20","134.6845","0.0","214.49","0","60.0","18"
"07/09/12 06:21:21","134.6849","11.9","213.98","1","60.03","18"
"07/09/12 06:26:21","134.6855","11.4","214.8","49","60.03","18"
"07/09/12 06:31:21","134.6862","14.4","212.42","143","60.03","19"
"07/09/12 06:36:21","134.6871","11.8","212.43","10","60.0","19"
"07/09/12 06:41:21","134.688","20.6","217.39","53","60.03","19"
"07/09/12 06:46:22","134.6892","12.8","214.4","102","60.07","20"
"07/09/12 06:51:20","134.6905","10.6","212.96","132","60.03","20"
"07/09/12 06:56:22","134.692","22.2","214.8","34","60.0","20"
"07/09/12 07:01:20","134.6931","18.3","214.58","33","60.0","21"
"07/09/12 07:06:22","134.6945","33.3","214.72","48","60.0","22"
"07/09/12 07:11:20","134.6967","35.1","214.51","258","60.0","22"
"07/09/12 07:16:21","134.6993","32.6","213.31","86","60.0","22"
"07/09/12 07:21:21","134.7022","44.8","214.63","345","60.0","23"
"07/09/12 07:26:21","134.7055","51.6","214.52","399","60.07","23"
"07/09/12 07:31:22","134.709","39.4","214.27","289","60.0","24"
"07/09/12 07:36:22","134.7115","43.7","214.01","334","60.07","24"
"07/09/12 07:41:21","134.7149","61.1","214.71","152","60.03","24"
"07/09/12 07:46:22","134.7182","19.6","212.88","172","60.03","25"
"07/09/12 07:51:20","134.7201","13.7","212.16","177","60.0","25"
"07/09/12 07:56:21","134.7243","65.1","214.05","331","60.0","25"
"07/09/12 08:01:20","134.7292","69.7","214.29","354","60.03","26"
"07/09/12 08:06:20","134.7339","43.0","214.31","427","60.03","26"
"07/09/12 08:11:20","134.7382","45.3","215.28","316","60.03","27"
"07/09/12 08:16:21","134.7422","73.2","215.3","366","60.03","27"
"07/09/12 08:21:20","134.7484","80.4","216.76","392","60.03","27"
"07/09/12 08:26:22","134.7548","82.8","216.91","403","60.03","28"
"07/09/12 08:31:21","134.7614","85.9","215.88","419","59.96","29"
"07/09/12 08:36:21","134.7683","93.0","216.32","448","60.03","30"
"07/09/12 08:41:21","134.7758","103.4","214.84","496","60.0","30"
"07/09/12 08:46:20","134.7815","43.3","213.12","354","60.0","31"
"07/09/12 08:51:22","134.786","118.7","215.21","557","60.03","31"
"07/09/12 08:56:21","134.794","109.6","215.84","522","60.07","31"
"07/09/12 09:01:21","134.8024","76.3","215.95","378","60.0","32"
"07/09/12 09:06:20","134.8106","110.9","218.55","518","60.03","32"
"07/09/12 09:11:22","134.8192","110.6","216.33","530","60.03","32"
"07/09/12 09:16:21","134.8279","112.5","216.77","534","60.0","33"
"07/09/12 09:21:21","134.8367","113.4","216.22","538","60.03","34"
"07/09/12 09:26:20","134.8455","114.9","215.55","542","60.03","34"
"07/09/12 09:31:21","134.8546","116.1","216.19","547","60.03","35"
"07/09/12 09:36:20","134.8637","117.4","216.51","559","60.0","35"
"07/09/12 09:41:21","134.8729","120.8","217.15","569","60.0","36"
"07/09/12 09:46:21","134.8825","123.7","217.21","578","60.03","36"
"07/09/12 09:51:20","134.8921","125.7","217.18","591","60.0","37"
"07/09/12 09:56:20","134.9021","128.3","217.19","605","60.0","37"
"07/09/12 10:01:20","134.9122","132.3","216.94","616","60.07","37"
"07/09/12 10:06:21","134.9226","133.5","216.85","623","60.0","37"
"07/09/12 10:11:20","134.933","136.2","217.76","630","60.03","37"
"07/09/12 10:16:20","134.944","155.8","219.02","710","60.0","37"
"07/09/12 10:21:22","134.9517","40.2","214.49","304","60.0","36"
"07/09/12 10:26:21","134.9553","24.6","214.61","21","60.0","34"
"07/09/12 10:31:22","134.9569","18.5","215.16","56","60.03","32"
"07/09/12 10:36:21","134.9584","15.0","214.32","19","60.0","31"
"07/09/12 10:41:20","134.9607","30.7","214.16","82","60.0","30"
"07/09/12 10:46:21","134.97","112.8","214.88","542","60.0","30"
"07/09/12 10:51:21","134.9813","116.0","214.16","554","60.0","31"
"07/09/12 10:56:21","134.9899","171.9","219.02","778","60.03","31"
"07/09/12 11:01:20","134.9981","66.1","215.55","332","60.0","31"
"07/09/12 11:06:20","135.0065","75.4","215.46","375","60.0","32"
"07/09/12 11:11:21","135.0126","38.0","215.08","327","60.03","30"
"07/09/12 11:16:21","135.0154","26.7","214.59","219","60.0","30"
"07/09/12 11:21:20","135.0185","81.1","216.05","397","60.03","29"
"07/09/12 11:26:20","135.0295","194.7","218.55","884","60.0","30"
"07/09/12 11:31:21","135.0427","175.9","218.05","805","60.03","32"
"07/09/12 11:36:22","135.0565","180.7","217.03","822","60.03","33"
"07/09/12 11:41:20","135.065","45.4","213.94","426","60.0","32"
"07/09/12 11:46:21","135.0696","117.1","215.12","557","60.03","32"
"07/09/12 11:51:21","135.0762","85.2","214.9","417","60.03","32"
"07/09/12 11:56:21","135.0871","94.3","214.52","456","60.0","32"
"07/09/12 12:01:22","135.0936","86.5","214.6","421","60.03","32"
"07/09/12 12:06:20","135.1019","194.1","217.72","879","60.03","32"
"07/09/12 12:11:20","135.1156","105.1","215.77","503","60.03","34"
"07/09/12 12:16:21","135.1288","170.4","216.76","778","60.0","35"
"07/09/12 12:21:20","135.1418","170.8","217.36","782","60.0","36"
"07/09/12 12:26:20","135.1545","176.3","214.75","813","60.0","37"
"07/09/12 12:31:20","135.1675","166.7","216.73","768","60.0","38"
"07/09/12 12:36:21","135.1809","182.8","216.86","833","60.03","39"
"07/09/12 12:41:20","135.1876","33.4","213.76","286","60.0","38"
"07/09/12 12:46:21","135.1909","40.5","213.91","111","60.0","37"
"07/09/12 12:51:20","135.1965","77.2","214.69","385","60.03","36"
"07/09/12 12:56:21","135.2079","130.3","216.21","614","60.07","37"
"07/09/12 13:01:22","135.2207","146.0","217.2","677","60.0","37"
"07/09/12 13:06:20","135.2309","64.9","215.39","329","60.03","37"
"07/09/12 13:11:22","135.2378","42.4","213.93","311","60.03","36"
"07/09/12 13:16:20","135.2505","179.8","217.48","822","60.03","37"
"07/09/12 13:21:21","135.2621","39.8","215.09","204","60.03","37"
"07/09/12 13:26:20","135.2665","91.2","214.76","445","60.0","36"
"07/09/12 13:31:21","135.2794","165.2","217.62","756","60.03","37"
"07/09/12 13:36:21","135.292","159.5","217.79","731","60.0","38"
"07/09/12 13:41:20","135.292","157.0","217.38","719","60.0","38"
"07/09/12 13:46:21","135.3043","157.0","217.74","723","60.03","37"
"07/09/12 13:51:21","135.3166","155.6","217.69","716","60.03","38"
"07/09/12 13:56:22","135.328","36.9","214.05","352","60.0","38"
"07/09/12 14:01:22","135.3389","158.5","217.06","733","60.03","38"
"07/09/12 14:06:20","135.3512","157.1","216.49","730","60.03","38"
"07/09/12 14:11:21","135.3635","165.2","216.62","762","60.03","38"